Time,TemperatureF,DewpointF,PressureIn,WindDirection,WindDirectionDegrees,WindSpeedMPH,WindSpeedGustMPH,Humidity,HourlyPrecipIn,Conditions,Clouds,dailyrainin,SoftwareType,DateUTC
2013-03-21 00:00:00,42.5,26.6,29.77,NW,325,0.0,0.0,53,0.00,,FEW100,0.00,VWS V14.01,2013-03-21 04:00:00,
2013-03-21 00:01:00,42.5,26.6,29.77,NW,325,0.0,0.0,53,0.00,,FEW100,0.00,VWS V14.01,2013-03-21 04:01:00,
2013-03-21 00:05:00,42.3,26.4,29.77,NNW,329,0.0,0.0,53,0.00,,FEW085,0.00,VWS V14.01,2013-03-21 04:05:00,
2013-03-21 00:06:00,42.3,26.4,29.77,NNW,329,0.0,0.0,53,0.00,,BKN200,0.00,VWS V14.01,2013-03-21 04:06:00,
2013-03-21 00:10:00,42.3,26.4,29.77,NNW,329,0.0,0.0,53,0.00,,FEW085,0.00,VWS V14.01,2013-03-21 04:10:00,
2013-03-21 00:11:00,42.2,26.3,29.77,NNW,329,0.0,0.0,53,0.00,,BKN200,0.00,VWS V14.01,2013-03-21 04:11:00,
2013-03-21 00:15:00,42.2,26.3,29.77,NNW,329,0.0,0.0,53,0.00,,FEW085,0.00,VWS V14.01,2013-03-21 04:15:00,
2013-03-21 00:16:00,42.2,26.3,29.77,NNW,329,0.0,0.0,53,0.00,,BKN200,0.00,VWS V14.01,2013-03-21 04:16:00,
2013-03-21 00:20:00,42.0,26.1,29.77,NNW,329,0.0,0.0,53,0.00,,FEW085,0.00,VWS V14.01,2013-03-21 04:20:00,
2013-03-21 00:21:00,42.0,26.1,29.77,NNW,329,0.0,0.0,53,0.00,,BKN200,0.00,VWS V14.01,2013-03-21 04:21:00,
2013-03-21 00:25:00,42.0,26.1,29.77,NNW,329,0.0,0.0,53,0.00,,FEW085,0.00,VWS V14.01,2013-03-21 04:25:00,
2013-03-21 00:26:00,41.8,25.9,29.77,NNW,329,0.0,0.0,53,0.00,,BKN200,0.00,VWS V14.01,2013-03-21 04:26:00,
2013-03-21 00:30:00,41.6,25.8,29.77,SSE,151,0.0,0.0,53,0.00,,FEW085,0.00,VWS V14.01,2013-03-21 04:30:00,
2013-03-21 00:31:00,41.6,25.8,29.77,South,171,6.7,7.0,53,0.00,,BKN200,0.00,VWS V14.01,2013-03-21 04:31:00,
2013-03-21 00:35:00,41.3,25.4,29.77,SSE,159,0.0,12.7,53,0.00,,FEW085,0.00,VWS V14.01,2013-03-21 04:35:00,
2013-03-21 00:36:00,41.1,25.3,29.77,SSE,159,0.0,0.0,53,0.00,,BKN200,0.00,VWS V14.01,2013-03-21 04:36:00,
2013-03-21 00:40:00,40.9,26.4,29.77,SSE,154,8.1,8.5,56,0.00,,FEW085,0.00,VWS V14.01,2013-03-21 04:40:00,
2013-03-21 00:42:00,40.9,26.4,29.77,SSE,164,6.7,8.5,56,0.00,,BKN200,0.00,VWS V14.01,2013-03-21 04:42:00,
2013-03-21 00:45:00,40.9,26.4,29.77,SSE,164,0.0,8.5,56,0.00,,FEW085,0.00,VWS V14.01,2013-03-21 04:45:00,
2013-03-21 00:47:00,40.9,26.4,29.77,SSE,164,0.0,0.0,56,0.00,,BKN200,0.00,VWS V14.01,2013-03-21 04:47:00,
2013-03-21 00:50:00,41.1,26.6,29.77,South,169,0.0,0.0,56,0.00,,FEW085,0.00,VWS V14.01,2013-03-21 04:50:00,
2013-03-21 00:52:00,41.1,26.6,29.77,South,169,0.0,0.0,56,0.00,,BKN200,0.00,VWS V14.01,2013-03-21 04:52:00,
2013-03-21 00:55:00,41.1,26.6,29.77,SSE,163,9.4,9.9,56,0.00,,FEW085,0.00,VWS V14.01,2013-03-21 04:55:00,
2013-03-21 00:57:00,41.3,26.8,29.77,SSE,160,0.0,9.9,56,0.00,,BKN200,0.00,VWS V14.01,2013-03-21 04:57:00,
2013-03-21 01:00:00,41.4,26.9,29.77,SSE,160,0.0,9.9,56,0.00,,FEW085,0.00,VWS V14.01,2013-03-21 05:00:00,
2013-03-21 01:02:00,41.8,26.8,29.77,SSE,160,0.0,0.0,55,0.00,,BKN200,0.00,VWS V14.01,2013-03-21 05:02:00,
2013-03-21 01:05:00,41.8,26.8,29.77,SSE,160,0.0,0.0,55,0.00,,FEW085,0.00,VWS V14.01,2013-03-21 05:05:00,
2013-03-21 01:07:00,42.0,27.0,29.77,South,171,0.0,0.0,55,0.00,,BKN200,0.00,VWS V14.01,2013-03-21 05:07:00,
2013-03-21 01:10:00,42.0,27.0,29.77,South,171,0.0,0.0,55,0.00,,FEW085,0.00,VWS V14.01,2013-03-21 05:10:00,
2013-03-21 01:12:00,42.0,27.0,29.77,South,171,0.0,0.0,55,0.00,,BKN200,0.00,VWS V14.01,2013-03-21 05:12:00,
2013-03-21 01:15:00,42.2,27.2,29.77,South,171,0.0,0.0,55,0.00,,FEW085,0.00,VWS V14.01,2013-03-21 05:15:00,
2013-03-21 01:18:00,42.2,27.2,29.77,South,171,0.0,0.0,55,0.00,,BKN200,0.00,VWS V14.01,2013-03-21 05:18:00,
2013-03-21 01:20:00,42.2,27.2,29.77,SSE,168,0.0,0.0,55,0.00,,FEW085,0.00,VWS V14.01,2013-03-21 05:20:00,
2013-03-21 01:23:00,42.2,27.2,29.74,SSE,168,0.0,0.0,55,0.00,,BKN200,0.00,VWS V14.01,2013-03-21 05:23:00,
2013-03-21 01:25:00,42.2,27.2,29.74,SSE,168,0.0,0.0,55,0.00,,FEW085,0.00,VWS V14.01,2013-03-21 05:25:00,
2013-03-21 01:28:00,42.2,27.2,29.74,SSE,168,0.0,0.0,55,0.00,,BKN200,0.00,VWS V14.01,2013-03-21 05:28:00,
2013-03-21 01:30:00,42.3,27.3,29.74,SSE,168,0.0,0.0,55,0.00,,FEW085,0.00,VWS V14.01,2013-03-21 05:30:00,
2013-03-21 01:33:00,42.3,27.3,29.74,SSE,168,0.0,0.0,55,0.00,,BKN200,0.00,VWS V14.01,2013-03-21 05:33:00,
2013-03-21 01:35:00,42.3,27.3,29.74,SSE,168,0.0,0.0,55,0.00,,FEW085,0.00,VWS V14.01,2013-03-21 05:35:00,
2013-03-21 01:38:00,42.3,27.3,29.74,SSE,168,0.0,0.0,55,0.00,,BKN200,0.00,VWS V14.01,2013-03-21 05:38:00,
2013-03-21 01:40:00,42.3,27.3,29.74,SSE,168,0.0,0.0,55,0.00,,FEW085,0.00,VWS V14.01,2013-03-21 05:40:00,
2013-03-21 01:43:00,42.3,27.3,29.74,SSE,168,0.0,0.0,55,0.00,,BKN200,0.00,VWS V14.01,2013-03-21 05:43:00,
2013-03-21 01:45:00,42.3,27.3,29.74,SSE,168,0.0,0.0,55,0.00,,FEW085,0.00,VWS V14.01,2013-03-21 05:45:00,
2013-03-21 01:48:00,42.2,27.2,29.74,SSE,168,0.0,0.0,55,0.00,,BKN200,0.00,VWS V14.01,2013-03-21 05:48:00,
2013-03-21 01:50:00,42.2,27.2,29.74,SSE,168,0.0,0.0,55,0.00,,FEW085,0.00,VWS V14.01,2013-03-21 05:50:00,
2013-03-21 01:53:00,42.2,27.2,29.74,SSE,168,0.0,0.0,55,0.00,,BKN200,0.00,VWS V14.01,2013-03-21 05:53:00,
2013-03-21 01:55:00,42.2,27.2,29.74,SSE,168,0.0,0.0,55,0.00,,FEW085,0.00,VWS V14.01,2013-03-21 05:55:00,
2013-03-21 01:58:00,42.2,27.2,29.74,SSE,168,0.0,0.0,55,0.00,,BKN200,0.00,VWS V14.01,2013-03-21 05:58:00,
2013-03-21 02:00:00,42.2,27.2,29.74,SSE,168,0.0,0.0,55,0.00,,FEW085,0.00,VWS V14.01,2013-03-21 06:00:00,
2013-03-21 02:03:00,42.2,27.2,29.74,SSE,168,0.0,0.0,55,0.00,,BKN095,0.00,VWS V14.01,2013-03-21 06:03:00,
2013-03-21 02:05:00,42.2,27.2,29.74,SSE,168,0.0,0.0,55,0.00,,FEW085,0.00,VWS V14.01,2013-03-21 06:05:00,
2013-03-21 02:08:00,42.3,27.3,29.74,SSE,168,0.0,0.0,55,0.00,,BKN095,0.00,VWS V14.01,2013-03-21 06:08:00,
2013-03-21 02:10:00,42.3,27.3,29.74,SSE,168,0.0,0.0,55,0.00,,FEW085,0.00,VWS V14.01,2013-03-21 06:10:00,
2013-03-21 02:14:00,42.5,27.5,29.74,SSE,168,0.0,0.0,55,0.00,,BKN095,0.00,VWS V14.01,2013-03-21 06:14:00,
2013-03-21 02:15:00,42.5,27.5,29.74,SSE,168,0.0,0.0,55,0.00,,FEW085,0.00,VWS V14.01,2013-03-21 06:15:00,
2013-03-21 02:19:00,42.7,27.7,29.74,SSE,151,0.0,0.0,55,0.00,,BKN095,0.00,VWS V14.01,2013-03-21 06:19:00,
2013-03-21 02:20:00,42.7,27.7,29.74,SSE,151,0.0,0.0,55,0.00,,FEW085,0.00,VWS V14.01,2013-03-21 06:20:00,
2013-03-21 02:24:00,42.9,29.1,29.74,SSE,153,0.0,0.0,58,0.00,,BKN095,0.00,VWS V14.01,2013-03-21 06:24:00,
2013-03-21 02:25:00,42.9,29.1,29.74,SSE,153,0.0,0.0,58,0.00,,FEW085,0.00,VWS V14.01,2013-03-21 06:25:00,
2013-03-21 02:29:00,43.1,29.3,29.74,SSE,153,0.0,0.0,58,0.00,,BKN095,0.00,VWS V14.01,2013-03-21 06:29:00,
2013-03-21 02:30:00,43.1,29.3,29.74,SSE,153,0.0,0.0,58,0.00,,FEW085,0.00,VWS V14.01,2013-03-21 06:30:00,
2013-03-21 02:34:00,43.1,29.3,29.74,SSE,153,0.0,0.0,58,0.00,,BKN095,0.00,VWS V14.01,2013-03-21 06:34:00,
2013-03-21 02:35:00,43.1,29.3,29.74,SSE,153,0.0,0.0,58,0.00,,FEW085,0.00,VWS V14.01,2013-03-21 06:35:00,
2013-03-21 02:39:00,43.1,29.3,29.71,SSE,153,0.0,0.0,58,0.00,,BKN095,0.00,VWS V14.01,2013-03-21 06:39:00,
2013-03-21 02:40:00,43.1,29.3,29.71,SSE,153,0.0,0.0,58,0.00,,FEW085,0.00,VWS V14.01,2013-03-21 06:40:00,
2013-03-21 02:44:00,43.1,29.3,29.71,SSE,153,0.0,0.0,58,0.00,,BKN095,0.00,VWS V14.01,2013-03-21 06:44:00,
2013-03-21 02:45:00,43.1,29.3,29.71,SSE,153,0.0,0.0,58,0.00,,FEW085,0.00,VWS V14.01,2013-03-21 06:45:00,
2013-03-21 02:49:00,43.1,29.3,29.71,SSE,153,0.0,0.0,58,0.00,,BKN095,0.00,VWS V14.01,2013-03-21 06:49:00,
2013-03-21 02:50:00,43.1,29.3,29.71,SSE,153,0.0,0.0,58,0.00,,FEW085,0.00,VWS V14.01,2013-03-21 06:50:00,
2013-03-21 02:54:00,42.9,29.1,29.71,SSE,153,0.0,0.0,58,0.00,,BKN095,0.00,VWS V14.01,2013-03-21 06:54:00,
2013-03-21 02:55:00,42.9,29.1,29.71,SSE,153,0.0,0.0,58,0.00,,FEW085,0.00,VWS V14.01,2013-03-21 06:55:00,
2013-03-21 02:59:00,42.9,32.7,29.71,SSE,153,0.0,0.0,67,0.00,,BKN095,0.00,VWS V14.01,2013-03-21 06:59:00,
2013-03-21 03:00:00,43.1,33.2,29.71,SSE,153,0.0,0.0,68,0.00,,FEW085,0.00,VWS V14.01,2013-03-21 07:00:00,
2013-03-21 03:04:00,43.1,33.2,29.71,SSE,153,0.0,0.0,68,0.00,,BKN090,0.00,VWS V14.01,2013-03-21 07:04:00,
2013-03-21 03:05:00,42.9,32.7,29.71,SSE,153,0.0,0.0,67,0.00,,FEW085,0.00,VWS V14.01,2013-03-21 07:05:00,
2013-03-21 03:09:00,42.5,31.2,29.74,SSE,153,0.0,0.0,64,0.00,,BKN090,0.00,VWS V14.01,2013-03-21 07:09:00,
2013-03-21 03:10:00,42.5,31.2,29.74,SSE,153,0.0,0.0,64,0.00,,FEW085,0.00,VWS V14.01,2013-03-21 07:10:00,
2013-03-21 03:14:00,42.2,30.5,29.74,SSE,153,0.0,0.0,63,0.00,,BKN090,0.00,VWS V14.01,2013-03-21 07:14:00,
2013-03-21 03:15:00,42.0,30.3,29.74,SSE,153,0.0,0.0,63,0.00,,FEW085,0.00,VWS V14.01,2013-03-21 07:15:00,
2013-03-21 03:20:00,41.6,30.4,29.74,SSE,153,0.0,0.0,64,0.00,,BKN090,0.00,VWS V14.01,2013-03-21 07:20:00,
2013-03-21 03:25:00,41.3,30.0,29.71,SSE,153,0.0,0.0,64,0.00,,BKN090,0.00,VWS V14.01,2013-03-21 07:25:00,
2013-03-21 03:30:00,40.9,29.7,29.71,SSE,153,0.0,0.0,64,0.00,,BKN090,0.00,VWS V14.01,2013-03-21 07:30:00,
2013-03-21 03:35:00,40.7,29.5,29.71,SSE,153,0.0,0.0,64,0.00,,BKN090,0.00,VWS V14.01,2013-03-21 07:35:00,
2013-03-21 03:40:00,40.5,29.3,29.71,SSE,153,0.0,0.0,64,0.00,,BKN090,0.00,VWS V14.01,2013-03-21 07:40:00,
2013-03-21 03:45:00,40.2,29.4,29.71,SSE,153,0.0,0.0,65,0.00,,BKN090,0.00,VWS V14.01,2013-03-21 07:45:00,
2013-03-21 03:50:00,40.2,29.4,29.71,SSE,153,0.0,0.0,65,0.00,,BKN090,0.00,VWS V14.01,2013-03-21 07:50:00,
2013-03-21 03:55:00,40.0,29.2,29.71,SSE,153,0.0,0.0,65,0.00,,BKN090,0.00,VWS V14.01,2013-03-21 07:55:00,
2013-03-21 04:00:00,39.5,29.1,29.71,SSE,153,0.0,0.0,66,0.00,,BKN090,0.00,VWS V14.01,2013-03-21 08:00:00,
2013-03-21 04:05:00,39.3,29.2,29.71,SSE,153,0.0,0.0,67,0.00,,BKN090,0.00,VWS V14.01,2013-03-21 08:05:00,
2013-03-21 04:10:00,38.9,29.3,29.71,SSE,153,0.0,0.0,68,0.00,,BKN090,0.00,VWS V14.01,2013-03-21 08:10:00,
2013-03-21 04:15:00,38.7,29.1,29.71,SSE,153,0.0,0.0,68,0.00,,BKN090,0.00,VWS V14.01,2013-03-21 08:15:00,
2013-03-21 04:20:00,38.6,29.3,29.71,East,97,0.0,0.0,69,0.00,,FEW075,0.00,VWS V14.01,2013-03-21 08:20:00,
2013-03-21 04:25:00,38.4,29.8,29.71,East,97,0.0,0.0,71,0.00,,FEW075,0.00,VWS V14.01,2013-03-21 08:25:00,
2013-03-21 04:30:00,38.4,30.2,29.71,SE,132,0.0,0.0,72,0.00,,FEW075,0.00,VWS V14.01,2013-03-21 08:30:00,
2013-03-21 04:35:00,38.4,30.2,29.71,SE,135,0.0,0.0,72,0.00,,FEW075,0.00,VWS V14.01,2013-03-21 08:35:00,
2013-03-21 04:40:00,38.4,30.2,29.74,SE,135,0.0,0.0,72,0.00,,FEW075,0.00,VWS V14.01,2013-03-21 08:40:00,
2013-03-21 04:45:00,38.4,29.5,29.74,ESE,119,0.0,0.0,70,0.00,,FEW075,0.00,VWS V14.01,2013-03-21 08:45:00,
2013-03-21 04:50:00,38.2,29.3,29.74,ESE,119,0.0,0.0,70,0.00,,FEW075,0.00,VWS V14.01,2013-03-21 08:50:00,
2013-03-21 04:55:00,38.2,28.6,29.71,ESE,119,0.0,0.0,68,0.00,,FEW075,0.00,VWS V14.01,2013-03-21 08:55:00,
2013-03-21 05:00:00,38.0,28.4,29.71,ESE,119,0.0,0.0,68,0.00,,FEW075,0.00,VWS V14.01,2013-03-21 09:00:00,
2013-03-21 05:05:00,37.8,28.2,29.71,ESE,119,0.0,0.0,68,0.00,,FEW085,0.00,VWS V14.01,2013-03-21 09:05:00,
2013-03-21 05:06:00,37.8,28.2,29.71,ESE,119,0.0,0.0,68,0.00,,FEW075,0.00,VWS V14.01,2013-03-21 09:06:00,
2013-03-21 05:10:00,37.8,28.2,29.74,ESE,119,0.0,0.0,68,0.00,,FEW085,0.00,VWS V14.01,2013-03-21 09:10:00,
2013-03-21 05:11:00,37.8,28.2,29.74,ESE,119,0.0,0.0,68,0.00,,FEW075,0.00,VWS V14.01,2013-03-21 09:11:00,
2013-03-21 05:15:00,37.7,27.7,29.74,ESE,122,0.0,0.0,67,0.00,,FEW085,0.00,VWS V14.01,2013-03-21 09:15:00,
2013-03-21 05:16:00,37.7,27.7,29.74,ESE,122,0.0,0.0,67,0.00,,FEW075,0.00,VWS V14.01,2013-03-21 09:16:00,
2013-03-21 05:20:00,37.7,27.7,29.74,ESE,122,0.0,0.0,67,0.00,,FEW085,0.00,VWS V14.01,2013-03-21 09:20:00,
2013-03-21 05:21:00,37.7,27.7,29.74,ESE,122,0.0,0.0,67,0.00,,FEW075,0.00,VWS V14.01,2013-03-21 09:21:00,
2013-03-21 05:25:00,37.7,27.3,29.74,SSE,154,0.0,0.0,66,0.00,,FEW085,0.00,VWS V14.01,2013-03-21 09:25:00,
2013-03-21 05:26:00,37.7,27.3,29.74,NNE,31,0.0,0.0,66,0.00,,FEW075,0.00,VWS V14.01,2013-03-21 09:26:00,
2013-03-21 05:30:00,37.8,27.9,29.74,SSE,154,0.0,0.0,67,0.00,,FEW085,0.00,VWS V14.01,2013-03-21 09:30:00,
2013-03-21 05:31:00,37.8,27.5,29.74,SE,140,0.0,0.0,66,0.00,,FEW075,0.00,VWS V14.01,2013-03-21 09:31:00,
2013-03-21 05:35:00,37.8,27.1,29.74,SE,133,6.7,11.3,65,0.00,,FEW085,0.00,VWS V14.01,2013-03-21 09:35:00,
2013-03-21 05:36:00,38.0,27.3,29.74,NNE,23,0.0,7.0,65,0.00,,FEW075,0.00,VWS V14.01,2013-03-21 09:36:00,
2013-03-21 05:40:00,38.0,26.9,29.74,SE,126,0.0,9.9,64,0.00,,FEW085,0.00,VWS V14.01,2013-03-21 09:40:00,
2013-03-21 05:41:00,38.2,27.1,29.74,SE,127,0.0,0.0,64,0.00,,FEW075,0.00,VWS V14.01,2013-03-21 09:41:00,
2013-03-21 05:45:00,38.2,26.7,29.74,ESE,111,6.7,12.7,63,0.00,,FEW085,0.00,VWS V14.01,2013-03-21 09:45:00,
2013-03-21 05:46:00,38.2,26.7,29.74,SE,138,0.0,7.0,63,0.00,,FEW075,0.00,VWS V14.01,2013-03-21 09:46:00,
2013-03-21 05:50:00,38.2,26.7,29.74,SSE,154,0.0,9.9,63,0.00,,FEW085,0.00,VWS V14.01,2013-03-21 09:50:00,
2013-03-21 05:51:00,38.2,26.7,29.74,ESE,119,0.0,0.0,63,0.00,,FEW075,0.00,VWS V14.01,2013-03-21 09:51:00,
2013-03-21 05:55:00,38.2,26.0,29.74,SSE,163,0.0,9.9,61,0.00,,FEW085,0.00,VWS V14.01,2013-03-21 09:55:00,
2013-03-21 05:56:00,38.2,26.0,29.74,SSE,158,0.0,0.0,61,0.00,,FEW075,0.00,VWS V14.01,2013-03-21 09:56:00,
2013-03-21 06:00:00,38.2,26.0,29.74,SSE,164,0.0,0.0,61,0.00,,FEW085,0.00,VWS V14.01,2013-03-21 10:00:00,
2013-03-21 06:01:00,38.2,26.0,29.74,SE,145,0.0,0.0,61,0.00,,FEW075,0.00,VWS V14.01,2013-03-21 10:01:00,
2013-03-21 06:05:00,38.0,26.9,29.74,South,169,0.0,0.0,64,0.00,,FEW085,0.00,VWS V14.01,2013-03-21 10:05:00,
2013-03-21 06:06:00,37.8,26.8,29.74,SSE,158,0.0,0.0,64,0.00,,FEW075,0.00,VWS V14.01,2013-03-21 10:06:00,
2013-03-21 06:10:00,37.8,26.8,29.74,SSE,160,0.0,0.0,64,0.00,,FEW085,0.00,VWS V14.01,2013-03-21 10:10:00,
2013-03-21 06:12:00,37.8,26.8,29.74,SSE,160,0.0,0.0,64,0.00,,FEW075,0.00,VWS V14.01,2013-03-21 10:12:00,
2013-03-21 06:15:00,37.7,26.6,29.74,SSE,160,0.0,0.0,64,0.00,,FEW085,0.00,VWS V14.01,2013-03-21 10:15:00,
2013-03-21 06:17:00,37.7,26.6,29.74,SSE,160,0.0,0.0,64,0.00,,FEW075,0.00,VWS V14.01,2013-03-21 10:17:00,
2013-03-21 06:20:00,37.7,25.4,29.74,SSE,147,0.0,9.9,61,0.00,,FEW085,0.00,VWS V14.01,2013-03-21 10:20:00,
2013-03-21 06:22:00,37.7,25.4,29.74,SSE,147,0.0,0.0,61,0.00,,FEW075,0.00,VWS V14.01,2013-03-21 10:22:00,
2013-03-21 06:25:00,37.5,25.3,29.77,SE,137,0.0,0.0,61,0.00,,FEW085,0.00,VWS V14.01,2013-03-21 10:25:00,
2013-03-21 06:27:00,37.5,25.3,29.77,ESE,116,0.0,0.0,61,0.00,,FEW075,0.00,VWS V14.01,2013-03-21 10:27:00,
2013-03-21 06:30:00,37.5,25.3,29.77,SE,130,0.0,0.0,61,0.00,,FEW085,0.00,VWS V14.01,2013-03-21 10:30:00,
2013-03-21 06:32:00,37.5,25.3,29.77,SSE,150,0.0,0.0,61,0.00,,FEW075,0.00,VWS V14.01,2013-03-21 10:32:00,
2013-03-21 06:35:00,37.7,25.4,29.77,SSE,163,0.0,0.0,61,0.00,,FEW085,0.00,VWS V14.01,2013-03-21 10:35:00,
2013-03-21 06:37:00,37.7,25.4,29.77,SSE,157,8.1,8.5,61,0.00,,FEW075,0.00,VWS V14.01,2013-03-21 10:37:00,
2013-03-21 06:40:00,37.7,25.4,29.74,ESE,111,9.4,9.9,61,0.00,,FEW085,0.00,VWS V14.01,2013-03-21 10:40:00,
2013-03-21 06:42:00,37.7,24.6,29.74,SE,130,0.0,11.3,59,0.00,,FEW075,0.00,VWS V14.01,2013-03-21 10:42:00,
2013-03-21 06:45:00,37.7,25.4,29.74,SE,135,0.0,11.3,61,0.00,,FEW085,0.00,VWS V14.01,2013-03-21 10:45:00,
2013-03-21 06:47:00,37.5,24.5,29.74,SE,140,0.0,8.5,59,0.00,,FEW075,0.00,VWS V14.01,2013-03-21 10:47:00,
2013-03-21 06:50:00,37.5,24.5,29.74,SE,127,0.0,8.5,59,0.00,,FEW085,0.00,VWS V14.01,2013-03-21 10:50:00,
2013-03-21 06:52:00,37.5,24.5,29.74,ENE,65,0.0,0.0,59,0.00,,FEW075,0.00,VWS V14.01,2013-03-21 10:52:00,
2013-03-21 06:55:00,37.5,24.5,29.77,ESE,118,0.0,0.0,59,0.00,,FEW085,0.00,VWS V14.01,2013-03-21 10:55:00,
2013-03-21 06:57:00,37.3,24.3,29.77,ESE,117,0.0,0.0,59,0.00,,FEW075,0.00,VWS V14.01,2013-03-21 10:57:00,
2013-03-21 07:00:00,37.3,24.3,29.77,ESE,118,0.0,0.0,59,0.00,,FEW085,0.00,VWS V14.01,2013-03-21 11:00:00,
2013-03-21 07:02:00,37.1,24.1,29.77,ESE,110,0.0,0.0,59,0.00,,SCT095,0.00,VWS V14.01,2013-03-21 11:02:00,
2013-03-21 07:05:00,37.1,24.1,29.77,ESE,110,0.0,0.0,59,0.00,,FEW085,0.00,VWS V14.01,2013-03-21 11:05:00,
2013-03-21 07:08:00,37.1,24.1,29.77,ESE,110,0.0,0.0,59,0.00,,SCT095,0.00,VWS V14.01,2013-03-21 11:08:00,
2013-03-21 07:10:00,36.9,24.0,29.77,ESE,118,0.0,0.0,59,0.00,,FEW085,0.00,VWS V14.01,2013-03-21 11:10:00,
2013-03-21 07:13:00,36.9,24.0,29.77,East,95,0.0,0.0,59,0.00,,SCT095,0.00,VWS V14.01,2013-03-21 11:13:00,
2013-03-21 07:15:00,36.9,24.0,29.77,SE,145,0.0,16.9,59,0.00,,FEW085,0.00,VWS V14.01,2013-03-21 11:15:00,
2013-03-21 07:18:00,36.9,24.0,29.77,SE,135,0.0,0.0,59,0.00,,SCT095,0.00,VWS V14.01,2013-03-21 11:18:00,
2013-03-21 07:20:00,36.9,24.0,29.77,ENE,71,0.0,0.0,59,0.00,,FEW085,0.00,VWS V14.01,2013-03-21 11:20:00,
2013-03-21 07:23:00,36.8,23.8,29.77,SSE,150,0.0,9.9,59,0.00,,SCT095,0.00,VWS V14.01,2013-03-21 11:23:00,
2013-03-21 07:25:00,36.8,23.8,29.77,SSE,148,0.0,9.9,59,0.00,,FEW085,0.00,VWS V14.01,2013-03-21 11:25:00,
2013-03-21 07:28:00,36.8,23.8,29.77,SSE,165,0.0,12.7,59,0.00,,SCT095,0.00,VWS V14.01,2013-03-21 11:28:00,
2013-03-21 07:30:00,36.6,23.6,29.77,ESE,102,0.0,12.7,59,0.00,,FEW085,0.00,VWS V14.01,2013-03-21 11:30:00,
2013-03-21 07:33:00,36.6,23.6,29.77,SSE,151,0.0,7.0,59,0.00,,SCT095,0.00,VWS V14.01,2013-03-21 11:33:00,
2013-03-21 07:35:00,36.6,23.6,29.77,SSE,151,0.0,7.0,59,0.00,,FEW085,0.00,VWS V14.01,2013-03-21 11:35:00,
2013-03-21 07:38:00,36.6,23.6,29.77,SSE,151,0.0,0.0,59,0.00,,SCT095,0.00,VWS V14.01,2013-03-21 11:38:00,
2013-03-21 07:40:00,36.6,23.6,29.77,SSE,164,0.0,0.0,59,0.00,,FEW085,0.00,VWS V14.01,2013-03-21 11:40:00,
2013-03-21 07:43:00,36.6,23.6,29.77,SSE,153,0.0,9.9,59,0.00,,SCT095,0.00,VWS V14.01,2013-03-21 11:43:00,
2013-03-21 07:45:00,36.6,23.6,29.77,SE,142,10.7,12.7,59,0.00,,FEW085,0.00,VWS V14.01,2013-03-21 11:45:00,
2013-03-21 07:48:00,36.4,23.5,29.77,SE,129,9.4,11.3,59,0.00,,SCT095,0.00,VWS V14.01,2013-03-21 11:48:00,
2013-03-21 07:50:00,36.4,23.5,29.77,ESE,119,0.0,12.7,59,0.00,,FEW085,0.00,VWS V14.01,2013-03-21 11:50:00,
2013-03-21 07:53:00,36.4,23.5,29.77,SE,137,0.0,9.9,59,0.00,,SCT095,0.00,VWS V14.01,2013-03-21 11:53:00,
2013-03-21 07:55:00,36.4,23.5,29.77,NNE,21,0.0,9.9,59,0.00,,FEW085,0.00,VWS V14.01,2013-03-21 11:55:00,
2013-03-21 07:58:00,36.4,23.5,29.77,SE,135,10.7,11.3,59,0.00,,SCT095,0.00,VWS V14.01,2013-03-21 11:58:00,
2013-03-21 08:00:00,36.4,23.5,29.77,SE,145,9.4,11.3,59,0.00,,FEW085,0.00,VWS V14.01,2013-03-21 12:00:00,
2013-03-21 08:03:00,36.6,23.6,29.77,SE,135,6.7,14.1,59,0.00,,SCT100,0.00,VWS V14.01,2013-03-21 12:03:00,
2013-03-21 08:05:00,36.6,23.6,29.77,NNE,31,0.0,14.1,59,0.00,,FEW085,0.00,VWS V14.01,2013-03-21 12:05:00,
2013-03-21 08:08:00,36.8,23.8,29.77,NE,39,0.0,12.7,59,0.00,,SCT100,0.00,VWS V14.01,2013-03-21 12:08:00,
2013-03-21 08:10:00,36.8,23.8,29.77,ESE,119,0.0,12.7,59,0.00,,FEW085,0.00,VWS V14.01,2013-03-21 12:10:00,
2013-03-21 08:13:00,36.8,23.8,29.77,SSE,153,0.0,0.0,59,0.00,,SCT100,0.00,VWS V14.01,2013-03-21 12:13:00,
2013-03-21 08:15:00,36.8,23.8,29.77,SSE,152,0.0,0.0,59,0.00,,FEW085,0.00,VWS V14.01,2013-03-21 12:15:00,
2013-03-21 08:18:00,36.6,23.6,29.77,SSE,157,0.0,0.0,59,0.00,,SCT100,0.00,VWS V14.01,2013-03-21 12:18:00,
2013-03-21 08:20:00,36.6,23.6,29.77,SSE,153,0.0,0.0,59,0.00,,FEW085,0.00,VWS V14.01,2013-03-21 12:20:00,
2013-03-21 08:23:00,36.4,23.5,29.77,SSE,157,8.1,9.9,59,0.00,,SCT100,0.00,VWS V14.01,2013-03-21 12:23:00,
2013-03-21 08:25:00,36.4,23.5,29.77,SE,140,0.0,9.9,59,0.00,,FEW085,0.00,VWS V14.01,2013-03-21 12:25:00,
2013-03-21 08:29:00,36.2,23.3,29.77,SSE,149,6.7,7.0,59,0.00,,SCT100,0.00,VWS V14.01,2013-03-21 12:29:00,
2013-03-21 08:30:00,36.2,23.3,29.77,SSE,151,0.0,9.9,59,0.00,,FEW085,0.00,VWS V14.01,2013-03-21 12:30:00,
2013-03-21 08:34:00,36.2,23.3,29.77,SSE,159,0.0,9.9,59,0.00,,SCT100,0.00,VWS V14.01,2013-03-21 12:34:00,
2013-03-21 08:35:00,36.2,23.3,29.77,SE,138,0.0,9.9,59,0.00,,FEW085,0.00,VWS V14.01,2013-03-21 12:35:00,
2013-03-21 08:39:00,36.2,23.3,29.77,SSE,160,0.0,12.7,59,0.00,,SCT100,0.00,VWS V14.01,2013-03-21 12:39:00,
2013-03-21 08:40:00,36.4,23.5,29.77,WNW,283,0.0,12.7,59,0.00,,FEW085,0.00,VWS V14.01,2013-03-21 12:40:00,
2013-03-21 08:44:00,36.4,22.2,29.77,East,98,9.4,11.3,56,0.00,,SCT100,0.00,VWS V14.01,2013-03-21 12:44:00,
2013-03-21 08:45:00,36.4,23.5,29.77,SSE,157,6.7,11.3,59,0.00,,FEW085,0.00,VWS V14.01,2013-03-21 12:45:00,
2013-03-21 08:49:00,36.6,22.4,29.77,ENE,59,0.0,16.9,56,0.00,,SCT100,0.00,VWS V14.01,2013-03-21 12:49:00,
2013-03-21 08:50:00,36.6,22.4,29.77,NNE,21,0.0,16.9,56,0.00,,FEW085,0.00,VWS V14.01,2013-03-21 12:50:00,
2013-03-21 08:54:00,36.6,22.4,29.80,SSE,160,0.0,9.9,56,0.00,,SCT100,0.00,VWS V14.01,2013-03-21 12:54:00,
2013-03-21 08:55:00,36.6,22.4,29.80,SSE,166,0.0,9.9,56,0.00,,FEW085,0.00,VWS V14.01,2013-03-21 12:55:00,
2013-03-21 08:59:00,36.8,22.5,29.80,SE,146,8.1,16.9,56,0.00,,SCT100,0.00,VWS V14.01,2013-03-21 12:59:00,
2013-03-21 09:00:00,36.8,22.5,29.80,SSE,168,16.1,19.7,56,0.00,,FEW085,0.00,VWS V14.01,2013-03-21 13:00:00,
2013-03-21 09:04:00,36.9,22.7,29.80,West,267,0.0,16.9,56,0.00,,SCT100,0.00,VWS V14.01,2013-03-21 13:04:00,
2013-03-21 09:05:00,36.9,22.7,29.80,SSE,165,6.7,16.9,56,0.00,,FEW085,0.00,VWS V14.01,2013-03-21 13:05:00,
2013-03-21 09:09:00,36.9,22.7,29.80,ESE,115,12.1,19.7,56,0.00,,SCT100,0.00,VWS V14.01,2013-03-21 13:09:00,
2013-03-21 09:10:00,36.9,22.7,29.80,SSE,168,8.1,19.7,56,0.00,,FEW085,0.00,VWS V14.01,2013-03-21 13:10:00,
2013-03-21 09:14:00,36.9,22.7,29.80,ENE,70,0.0,15.5,56,0.00,,SCT100,0.00,VWS V14.01,2013-03-21 13:14:00,
2013-03-21 09:15:00,37.1,22.9,29.80,SSE,154,9.4,15.5,56,0.00,,FEW085,0.00,VWS V14.01,2013-03-21 13:15:00,
2013-03-21 09:19:00,37.1,24.1,29.80,SSE,167,0.0,12.7,59,0.00,,SCT100,0.00,VWS V14.01,2013-03-21 13:19:00,
2013-03-21 09:20:00,37.3,24.3,29.80,SSE,167,0.0,12.7,59,0.00,,FEW085,0.00,VWS V14.01,2013-03-21 13:20:00,
2013-03-21 09:24:00,37.5,23.2,29.80,East,91,9.4,11.3,56,0.00,,SCT100,0.00,VWS V14.01,2013-03-21 13:24:00,
2013-03-21 09:25:00,37.5,23.2,29.80,SSE,154,16.1,16.9,56,0.00,,FEW085,0.00,VWS V14.01,2013-03-21 13:25:00,
2013-03-21 09:29:00,37.7,23.4,29.80,ESE,120,8.1,16.9,56,0.00,,SCT100,0.00,VWS V14.01,2013-03-21 13:29:00,
2013-03-21 09:30:00,37.7,23.4,29.80,ESE,115,0.0,16.9,56,0.00,,FEW085,0.00,VWS V14.01,2013-03-21 13:30:00,
2013-03-21 09:34:00,37.7,23.4,29.80,South,186,16.1,16.9,56,0.00,,SCT100,0.00,VWS V14.01,2013-03-21 13:34:00,
2013-03-21 09:35:00,37.7,23.4,29.80,SSE,165,14.8,16.9,56,0.00,,FEW085,0.00,VWS V14.01,2013-03-21 13:35:00,
2013-03-21 09:39:00,37.7,23.4,29.80,ESE,119,12.1,16.9,56,0.00,,SCT100,0.00,VWS V14.01,2013-03-21 13:39:00,
2013-03-21 09:40:00,37.7,23.4,29.80,SE,126,0.0,16.9,56,0.00,,FEW085,0.00,VWS V14.01,2013-03-21 13:40:00,
2013-03-21 09:44:00,37.8,23.6,29.80,East,101,0.0,12.7,56,0.00,,SCT100,0.00,VWS V14.01,2013-03-21 13:44:00,
2013-03-21 09:45:00,37.8,23.6,29.80,SSE,148,12.1,12.7,56,0.00,,FEW085,0.00,VWS V14.01,2013-03-21 13:45:00,
2013-03-21 09:50:00,37.8,23.6,29.80,SSE,154,6.7,12.7,56,0.00,,SCT100,0.00,VWS V14.01,2013-03-21 13:50:00,
2013-03-21 09:55:00,38.2,23.9,29.80,SE,136,0.0,7.0,56,0.00,,SCT100,0.00,VWS V14.01,2013-03-21 13:55:00,
2013-03-21 10:00:00,38.6,24.2,29.80,SSE,158,9.4,16.9,56,0.00,,SCT100,0.00,VWS V14.01,2013-03-21 14:00:00,
2013-03-21 10:05:00,38.6,22.9,29.80,SSE,149,9.4,19.7,53,0.00,,SCT085,0.00,VWS V14.01,2013-03-21 14:05:00,
2013-03-21 10:10:00,38.4,22.8,29.80,SSE,152,0.0,12.7,53,0.00,,SCT085,0.00,VWS V14.01,2013-03-21 14:10:00,
2013-03-21 10:15:00,38.4,22.8,29.80,SE,134,0.0,0.0,53,0.00,,SCT085,0.00,VWS V14.01,2013-03-21 14:15:00,
2013-03-21 10:20:00,38.6,22.9,29.80,SSE,163,0.0,0.0,53,0.00,,SCT085,0.00,VWS V14.01,2013-03-21 14:20:00,
2013-03-21 10:25:00,38.6,22.9,29.80,ESE,103,0.0,0.0,53,0.00,,SCT085,0.00,VWS V14.01,2013-03-21 14:25:00,
2013-03-21 10:30:00,38.9,23.3,29.80,WNW,282,0.0,7.0,53,0.00,,SCT085,0.00,VWS V14.01,2013-03-21 14:30:00,
2013-03-21 10:35:00,39.1,23.4,29.80,SSE,165,10.7,11.3,53,0.00,,SCT085,0.00,VWS V14.01,2013-03-21 14:35:00,
2013-03-21 10:40:00,39.3,23.6,29.80,SE,143,9.4,16.9,53,0.00,,SCT085,0.00,VWS V14.01,2013-03-21 14:40:00,
2013-03-21 10:45:00,39.5,25.1,29.80,South,172,0.0,16.9,56,0.00,,FEW085,0.00,VWS V14.01,2013-03-21 14:45:00,
2013-03-21 10:46:00,39.3,24.9,29.80,SSE,165,10.7,11.3,56,0.00,,SCT085,0.00,VWS V14.01,2013-03-21 14:46:00,
2013-03-21 10:50:00,39.5,23.8,29.80,SE,137,6.7,11.3,53,0.00,,FEW085,0.00,VWS V14.01,2013-03-21 14:50:00,
2013-03-21 10:51:00,39.6,23.9,29.80,SE,143,0.0,7.0,53,0.00,,SCT085,0.00,VWS V14.01,2013-03-21 14:51:00,
2013-03-21 10:55:00,39.8,24.1,29.80,SSE,166,6.7,18.3,53,0.00,,FEW085,0.00,VWS V14.01,2013-03-21 14:55:00,
2013-03-21 10:56:00,39.8,24.1,29.80,SSE,159,10.7,11.3,53,0.00,,SCT085,0.00,VWS V14.01,2013-03-21 14:56:00,
2013-03-21 11:00:00,39.5,23.8,29.80,SSE,158,6.7,15.5,53,0.00,,FEW085,0.00,VWS V14.01,2013-03-21 15:00:00,
2013-03-21 11:02:00,39.5,23.8,29.80,SE,145,0.0,7.0,53,0.00,,SCT085,0.00,VWS V14.01,2013-03-21 15:02:00,
2013-03-21 11:05:00,39.3,23.6,29.80,South,174,16.1,18.3,53,0.00,,FEW085,0.00,VWS V14.01,2013-03-21 15:05:00,
2013-03-21 11:07:00,39.3,23.6,29.80,SSE,149,10.7,18.3,53,0.00,,SCT085,0.00,VWS V14.01,2013-03-21 15:07:00,
2013-03-21 11:10:00,39.3,23.6,29.80,SSE,149,9.4,18.3,53,0.00,,FEW085,0.00,VWS V14.01,2013-03-21 15:10:00,
2013-03-21 11:12:00,39.3,23.6,29.80,SE,141,0.0,9.9,53,0.00,,SCT085,0.00,VWS V14.01,2013-03-21 15:12:00,
2013-03-21 11:15:00,39.5,23.8,29.80,SSE,161,9.4,19.7,53,0.00,,FEW085,0.00,VWS V14.01,2013-03-21 15:15:00,
2013-03-21 11:17:00,39.5,23.8,29.80,SE,144,14.8,18.3,53,0.00,,SCT085,0.00,VWS V14.01,2013-03-21 15:17:00,
2013-03-21 11:20:00,39.5,23.8,29.80,SE,140,14.8,18.3,53,0.00,,FEW085,0.00,VWS V14.01,2013-03-21 15:20:00,
2013-03-21 11:22:00,39.6,23.9,29.80,SSE,156,10.7,15.5,53,0.00,,SCT085,0.00,VWS V14.01,2013-03-21 15:22:00,
2013-03-21 11:25:00,39.6,23.9,29.80,SE,145,0.0,15.5,53,0.00,,FEW085,0.00,VWS V14.01,2013-03-21 15:25:00,
2013-03-21 11:27:00,40.0,24.3,29.80,South,169,9.4,9.9,53,0.00,,SCT085,0.00,VWS V14.01,2013-03-21 15:27:00,
2013-03-21 11:30:00,40.2,24.4,29.80,South,174,10.7,16.9,53,0.00,,FEW085,0.00,VWS V14.01,2013-03-21 15:30:00,
2013-03-21 11:32:00,40.4,24.6,29.80,SSE,156,9.4,15.5,53,0.00,,SCT085,0.00,VWS V14.01,2013-03-21 15:32:00,
2013-03-21 11:35:00,40.5,24.8,29.80,NNE,32,0.0,15.5,53,0.00,,FEW085,0.00,VWS V14.01,2013-03-21 15:35:00,
2013-03-21 11:37:00,40.5,24.8,29.80,SSE,152,8.1,9.9,53,0.00,,SCT085,0.00,VWS V14.01,2013-03-21 15:37:00,
2013-03-21 11:40:00,40.5,24.8,29.80,SE,133,12.1,12.7,53,0.00,,FEW085,0.00,VWS V14.01,2013-03-21 15:40:00,
2013-03-21 11:42:00,40.7,24.9,29.80,NNW,342,8.1,15.5,53,0.00,,SCT085,0.00,VWS V14.01,2013-03-21 15:42:00,
2013-03-21 11:45:00,40.7,24.9,29.80,SSE,160,8.1,16.9,53,0.00,,FEW085,0.00,VWS V14.01,2013-03-21 15:45:00,
2013-03-21 11:47:00,40.9,25.1,29.80,ESE,111,0.0,8.5,53,0.00,,SCT085,0.00,VWS V14.01,2013-03-21 15:47:00,
2013-03-21 11:50:00,41.1,25.3,29.80,SSE,165,12.1,16.9,53,0.00,,FEW085,0.00,VWS V14.01,2013-03-21 15:50:00,
2013-03-21 11:52:00,41.1,25.3,29.80,SE,127,16.1,16.9,53,0.00,,SCT085,0.00,VWS V14.01,2013-03-21 15:52:00,
2013-03-21 11:55:00,40.7,24.9,29.80,SE,145,0.0,18.3,53,0.00,,FEW085,0.00,VWS V14.01,2013-03-21 15:55:00,
2013-03-21 11:57:00,40.7,24.9,29.80,SSE,163,9.4,9.9,53,0.00,,SCT085,0.00,VWS V14.01,2013-03-21 15:57:00,
2013-03-21 12:00:00,40.7,24.9,29.80,SSE,154,6.7,9.9,53,0.00,,FEW085,0.00,VWS V14.01,2013-03-21 16:00:00,
2013-03-21 12:02:00,40.7,24.9,29.80,SSE,158,6.7,12.7,53,0.00,,SCT055,0.00,VWS V14.01,2013-03-21 16:02:00,
2013-03-21 12:05:00,40.7,24.9,29.80,SSE,152,8.1,16.9,53,0.00,,FEW085,0.00,VWS V14.01,2013-03-21 16:05:00,
2013-03-21 12:07:00,40.7,24.9,29.80,North,357,0.0,8.5,53,0.00,,SCT055,0.00,VWS V14.01,2013-03-21 16:07:00,
2013-03-21 12:10:00,40.7,24.9,29.77,South,180,9.4,12.7,53,0.00,,FEW085,0.00,VWS V14.01,2013-03-21 16:10:00,
2013-03-21 12:12:00,40.9,25.1,29.77,SE,139,10.7,11.3,53,0.00,,SCT055,0.00,VWS V14.01,2013-03-21 16:12:00,
2013-03-21 12:15:00,41.1,25.3,29.77,SSE,166,18.8,19.7,53,0.00,,FEW085,0.00,VWS V14.01,2013-03-21 16:15:00,
2013-03-21 12:18:00,41.1,25.3,29.77,SE,142,0.0,19.7,53,0.00,,SCT055,0.00,VWS V14.01,2013-03-21 16:18:00,
2013-03-21 12:20:00,41.1,25.3,29.77,SE,136,8.1,19.7,53,0.00,,FEW085,0.00,VWS V14.01,2013-03-21 16:20:00,
2013-03-21 12:23:00,41.3,25.4,29.77,SSW,193,0.0,9.9,53,0.00,,SCT055,0.00,VWS V14.01,2013-03-21 16:23:00,
2013-03-21 12:25:00,41.3,25.4,29.77,South,171,6.7,11.3,53,0.00,,FEW085,0.00,VWS V14.01,2013-03-21 16:25:00,
2013-03-21 12:28:00,41.4,25.6,29.77,SSE,165,0.0,9.9,53,0.00,,SCT055,0.00,VWS V14.01,2013-03-21 16:28:00,
2013-03-21 12:30:00,41.4,25.6,29.77,SE,146,0.0,9.9,53,0.00,,FEW085,0.00,VWS V14.01,2013-03-21 16:30:00,
2013-03-21 12:33:00,41.8,25.9,29.77,SSE,158,9.4,18.3,53,0.00,,SCT055,0.00,VWS V14.01,2013-03-21 16:33:00,
2013-03-21 12:35:00,41.8,25.9,29.77,SSE,147,0.0,18.3,53,0.00,,FEW085,0.00,VWS V14.01,2013-03-21 16:35:00,
2013-03-21 12:38:00,41.8,25.9,29.77,SE,127,9.4,9.9,53,0.00,,SCT055,0.00,VWS V14.01,2013-03-21 16:38:00,
2013-03-21 12:40:00,41.8,25.9,29.77,SE,141,0.0,9.9,53,0.00,,FEW085,0.00,VWS V14.01,2013-03-21 16:40:00,
2013-03-21 12:43:00,41.6,25.8,29.77,SSE,164,9.4,9.9,53,0.00,,SCT055,0.00,VWS V14.01,2013-03-21 16:43:00,
2013-03-21 12:45:00,41.6,25.8,29.77,NW,322,8.1,11.3,53,0.00,,FEW085,0.00,VWS V14.01,2013-03-21 16:45:00,
2013-03-21 12:48:00,41.6,25.8,29.77,SE,136,9.4,11.3,53,0.00,,SCT055,0.00,VWS V14.01,2013-03-21 16:48:00,
2013-03-21 12:50:00,41.8,25.9,29.77,NNE,28,0.0,11.3,53,0.00,,FEW085,0.00,VWS V14.01,2013-03-21 16:50:00,
2013-03-21 12:53:00,41.6,25.8,29.77,South,175,9.4,15.5,53,0.00,,SCT055,0.00,VWS V14.01,2013-03-21 16:53:00,
2013-03-21 12:55:00,41.4,25.6,29.77,ENE,77,0.0,15.5,53,0.00,,FEW085,0.00,VWS V14.01,2013-03-21 16:55:00,
2013-03-21 12:58:00,41.6,25.8,29.77,South,180,18.8,19.7,53,0.00,,SCT055,0.00,VWS V14.01,2013-03-21 16:58:00,
2013-03-21 13:00:00,41.8,25.9,29.77,SSE,156,10.7,22.5,53,0.00,,FEW085,0.00,VWS V14.01,2013-03-21 17:00:00,
2013-03-21 13:03:00,42.0,26.1,29.77,SSE,157,16.1,19.7,53,0.00,,SCT060,0.00,VWS V14.01,2013-03-21 17:03:00,
2013-03-21 13:05:00,42.2,26.3,29.77,South,176,12.1,19.7,53,0.00,,FEW085,0.00,VWS V14.01,2013-03-21 17:05:00,
2013-03-21 13:08:00,42.3,26.4,29.77,South,170,9.4,18.3,53,0.00,,SCT060,0.00,VWS V14.01,2013-03-21 17:08:00,
2013-03-21 13:10:00,42.5,26.6,29.77,SSE,158,14.8,18.3,53,0.00,,FEW085,0.00,VWS V14.01,2013-03-21 17:10:00,
2013-03-21 13:13:00,42.5,26.6,29.77,SSE,156,8.1,19.7,53,0.00,,SCT060,0.00,VWS V14.01,2013-03-21 17:13:00,
2013-03-21 13:15:00,42.3,26.4,29.77,SSE,165,10.7,19.7,53,0.00,,FEW085,0.00,VWS V14.01,2013-03-21 17:15:00,
2013-03-21 13:18:00,42.3,26.4,29.77,South,175,12.1,15.5,53,0.00,,SCT060,0.00,VWS V14.01,2013-03-21 17:18:00,
2013-03-21 13:20:00,42.3,26.4,29.77,SE,129,0.0,15.5,53,0.00,,FEW085,0.00,VWS V14.01,2013-03-21 17:20:00,
2013-03-21 13:23:00,42.3,26.4,29.77,SSE,156,16.1,19.7,53,0.00,,SCT060,0.00,VWS V14.01,2013-03-21 17:23:00,
2013-03-21 13:25:00,42.2,26.3,29.77,South,169,14.8,19.7,53,0.00,,FEW085,0.00,VWS V14.01,2013-03-21 17:25:00,
2013-03-21 13:29:00,42.3,26.4,29.77,SE,144,6.7,16.9,53,0.00,,SCT060,0.00,VWS V14.01,2013-03-21 17:29:00,
2013-03-21 13:30:00,42.5,26.6,29.77,SSE,151,8.1,16.9,53,0.00,,FEW085,0.00,VWS V14.01,2013-03-21 17:30:00,
2013-03-21 13:34:00,42.9,26.9,29.77,SSE,160,8.1,19.7,53,0.00,,SCT060,0.00,VWS V14.01,2013-03-21 17:34:00,
2013-03-21 13:35:00,42.9,26.9,29.77,SSE,164,12.1,19.7,53,0.00,,FEW085,0.00,VWS V14.01,2013-03-21 17:35:00,
2013-03-21 13:39:00,43.1,27.1,29.77,SE,129,8.1,18.3,53,0.00,,SCT060,0.00,VWS V14.01,2013-03-21 17:39:00,
2013-03-21 13:40:00,43.1,27.1,29.77,South,176,16.1,25.4,53,0.00,,FEW085,0.00,VWS V14.01,2013-03-21 17:40:00,
2013-03-21 13:44:00,42.9,26.9,29.77,South,170,14.8,19.7,53,0.00,,SCT060,0.00,VWS V14.01,2013-03-21 17:44:00,
2013-03-21 13:45:00,42.7,26.8,29.77,SSE,162,14.8,19.7,53,0.00,,FEW085,0.00,VWS V14.01,2013-03-21 17:45:00,
2013-03-21 13:49:00,42.9,26.9,29.77,SSE,167,10.7,15.5,53,0.00,,SCT060,0.00,VWS V14.01,2013-03-21 17:49:00,
2013-03-21 13:50:00,43.1,27.1,29.77,SSE,168,8.1,15.5,53,0.00,,FEW085,0.00,VWS V14.01,2013-03-21 17:50:00,
2013-03-21 13:54:00,42.9,26.9,29.77,South,179,10.7,16.9,53,0.00,,SCT060,0.00,VWS V14.01,2013-03-21 17:54:00,
2013-03-21 13:55:00,42.9,26.9,29.77,SE,141,10.7,18.3,53,0.00,,FEW085,0.00,VWS V14.01,2013-03-21 17:55:00,
2013-03-21 13:59:00,42.5,26.6,29.77,South,176,10.7,15.5,53,0.00,,SCT060,0.00,VWS V14.01,2013-03-21 17:59:00,
2013-03-21 14:00:00,42.5,26.6,29.77,ESE,106,6.7,15.5,53,0.00,,FEW085,0.00,VWS V14.01,2013-03-21 18:00:00,
2013-03-21 14:04:00,42.9,26.9,29.77,SE,141,12.1,16.9,53,0.00,,SCT070,0.00,VWS V14.01,2013-03-21 18:04:00,
2013-03-21 14:05:00,43.1,27.1,29.77,ESE,116,6.7,16.9,53,0.00,,FEW085,0.00,VWS V14.01,2013-03-21 18:05:00,
2013-03-21 14:09:00,43.2,27.3,29.77,SSE,165,10.7,19.7,53,0.00,,SCT070,0.00,VWS V14.01,2013-03-21 18:09:00,
2013-03-21 14:10:00,43.2,27.3,29.77,SSE,155,6.7,19.7,53,0.00,,FEW085,0.00,VWS V14.01,2013-03-21 18:10:00,
2013-03-21 14:14:00,43.2,27.3,29.77,SE,135,9.4,12.7,53,0.00,,SCT070,0.00,VWS V14.01,2013-03-21 18:14:00,
2013-03-21 14:15:00,43.2,27.3,29.77,South,171,10.7,18.3,53,0.00,,FEW085,0.00,VWS V14.01,2013-03-21 18:15:00,
2013-03-21 14:19:00,43.2,27.3,29.77,SSE,155,8.1,19.7,53,0.00,,SCT070,0.00,VWS V14.01,2013-03-21 18:19:00,
2013-03-21 14:20:00,43.2,27.3,29.77,SSE,158,12.1,19.7,53,0.00,,FEW085,0.00,VWS V14.01,2013-03-21 18:20:00,
2013-03-21 14:24:00,42.7,26.8,29.77,South,172,18.8,19.7,53,0.00,,SCT070,0.00,VWS V14.01,2013-03-21 18:24:00,
2013-03-21 14:25:00,42.7,26.8,29.77,SE,145,8.1,19.7,53,0.00,,FEW085,0.00,VWS V14.01,2013-03-21 18:25:00,
2013-03-21 14:29:00,42.5,26.6,29.77,South,178,16.1,18.3,53,0.00,,SCT070,0.00,VWS V14.01,2013-03-21 18:29:00,
2013-03-21 14:30:00,42.5,26.6,29.77,SSE,156,8.1,18.3,53,0.00,,FEW085,0.00,VWS V14.01,2013-03-21 18:30:00,
2013-03-21 14:34:00,42.9,26.9,29.77,SSE,166,9.4,15.5,53,0.00,,SCT070,0.00,VWS V14.01,2013-03-21 18:34:00,
2013-03-21 14:35:00,43.1,27.1,29.77,SE,143,12.1,15.5,53,0.00,,FEW085,0.00,VWS V14.01,2013-03-21 18:35:00,
2013-03-21 14:39:00,43.6,27.1,29.77,South,174,9.4,15.5,52,0.00,,SCT070,0.00,VWS V14.01,2013-03-21 18:39:00,
2013-03-21 14:40:00,43.6,27.1,29.77,South,176,8.1,15.5,52,0.00,,FEW085,0.00,VWS V14.01,2013-03-21 18:40:00,
2013-03-21 14:44:00,44.3,27.8,29.77,SSE,163,9.4,15.5,52,0.00,,SCT070,0.00,VWS V14.01,2013-03-21 18:44:00,
2013-03-21 14:45:00,44.3,27.8,29.77,South,177,6.7,15.5,52,0.00,,FEW085,0.00,VWS V14.01,2013-03-21 18:45:00,
2013-03-21 14:50:00,44.5,28.0,29.77,South,173,12.1,25.4,52,0.00,,SCT070,0.00,VWS V14.01,2013-03-21 18:50:00,
2013-03-21 14:55:00,44.7,28.1,29.77,SSE,165,12.1,18.3,52,0.00,,SCT070,0.00,VWS V14.01,2013-03-21 18:55:00,
2013-03-21 15:00:00,44.5,28.0,29.77,SSE,147,9.4,16.9,52,0.00,,SCT070,0.00,VWS V14.01,2013-03-21 19:00:00,
2013-03-21 15:05:00,44.5,28.0,29.77,SSE,158,22.8,26.1,52,0.00,,BKN070,0.00,VWS V14.01,2013-03-21 19:05:00,
2013-03-21 15:10:00,43.8,27.3,29.77,East,84,8.1,22.5,52,0.00,,BKN070,0.00,VWS V14.01,2013-03-21 19:10:00,
2013-03-21 15:15:00,43.2,27.3,29.77,ESE,111,9.4,15.5,53,0.00,,BKN070,0.00,VWS V14.01,2013-03-21 19:15:00,
2013-03-21 15:20:00,43.2,27.3,29.77,SE,135,9.4,11.3,53,0.00,,BKN070,0.00,VWS V14.01,2013-03-21 19:20:00,
2013-03-21 15:25:00,43.6,27.1,29.77,SE,141,9.4,21.1,52,0.00,,BKN070,0.00,VWS V14.01,2013-03-21 19:25:00,
2013-03-21 15:30:00,43.6,27.1,29.77,North,0,10.7,11.3,52,0.00,,BKN070,0.00,VWS V14.01,2013-03-21 19:30:00,
2013-03-21 15:35:00,43.2,27.3,29.77,ESE,119,8.1,8.5,53,0.00,,BKN070,0.00,VWS V14.01,2013-03-21 19:35:00,
2013-03-21 15:40:00,43.1,27.1,29.77,SSE,162,0.0,0.0,53,0.00,,BKN070,0.00,VWS V14.01,2013-03-21 19:40:00,
2013-03-21 15:45:00,43.1,27.1,29.77,SE,128,10.7,11.3,53,0.00,,BKN070,0.00,VWS V14.01,2013-03-21 19:45:00,
2013-03-21 15:50:00,43.1,27.1,29.77,SSE,147,10.7,16.9,53,0.00,,BKN070,0.00,VWS V14.01,2013-03-21 19:50:00,
2013-03-21 15:55:00,43.1,27.1,29.77,SE,127,0.0,0.0,53,0.00,,BKN070,0.00,VWS V14.01,2013-03-21 19:55:00,
2013-03-21 16:00:00,43.2,27.3,29.77,SSE,165,12.1,15.5,53,0.00,,FEW085,0.00,VWS V14.01,2013-03-21 20:00:00,
2013-03-21 16:01:00,43.2,27.3,29.77,South,170,6.7,12.7,53,0.00,,BKN070,0.00,VWS V14.01,2013-03-21 20:01:00,
2013-03-21 16:05:00,43.2,27.3,29.77,SE,141,9.4,16.9,53,0.00,,FEW085,0.00,VWS V14.01,2013-03-21 20:05:00,
2013-03-21 16:06:00,43.4,27.5,29.77,South,176,12.1,25.4,53,0.00,,BKN070,0.00,VWS V14.01,2013-03-21 20:06:00,
2013-03-21 16:10:00,43.4,27.4,29.77,SE,139,10.7,25.4,53,0.00,,FEW085,0.00,VWS V14.01,2013-03-21 20:10:00,
2013-03-21 16:11:00,43.4,27.5,29.77,ESE,119,8.1,11.3,53,0.00,,BKN070,0.00,VWS V14.01,2013-03-21 20:11:00,
2013-03-21 16:15:00,43.1,27.1,29.77,East,97,8.1,12.7,53,0.00,,FEW085,0.00,VWS V14.01,2013-03-21 20:15:00,
2013-03-21 16:16:00,42.9,26.9,29.77,NNW,344,16.1,16.9,53,0.00,,BKN070,0.00,VWS V14.01,2013-03-21 20:16:00,
2013-03-21 16:20:00,42.5,26.6,29.77,SSE,148,10.7,18.3,53,0.00,,FEW085,0.00,VWS V14.01,2013-03-21 20:20:00,
2013-03-21 16:21:00,42.3,26.4,29.77,SSE,147,10.7,11.3,53,0.00,,BKN070,0.00,VWS V14.01,2013-03-21 20:21:00,
2013-03-21 16:25:00,42.2,26.3,29.77,SE,129,6.7,12.7,53,0.00,,FEW085,0.00,VWS V14.01,2013-03-21 20:25:00,
2013-03-21 16:26:00,42.2,26.3,29.77,SE,129,0.0,7.0,53,0.00,,BKN070,0.00,VWS V14.01,2013-03-21 20:26:00,
2013-03-21 16:30:00,42.2,26.3,29.77,SSE,157,12.1,18.3,53,0.00,,FEW085,0.00,VWS V14.01,2013-03-21 20:30:00,
2013-03-21 16:32:00,42.2,26.3,29.77,SSE,155,6.7,12.7,53,0.00,,BKN070,0.00,VWS V14.01,2013-03-21 20:32:00,
2013-03-21 16:35:00,42.5,26.6,29.77,South,182,16.1,16.9,53,0.00,,FEW085,0.00,VWS V14.01,2013-03-21 20:35:00,
2013-03-21 16:37:00,42.7,26.8,29.77,SSE,165,31.5,33.1,53,0.00,,BKN070,0.00,VWS V14.01,2013-03-21 20:37:00,
2013-03-21 16:40:00,43.1,27.1,29.77,East,86,6.7,33.1,53,0.00,,FEW085,0.00,VWS V14.01,2013-03-21 20:40:00,
2013-03-21 16:42:00,43.2,27.3,29.77,SE,140,12.1,12.7,53,0.00,,BKN070,0.00,VWS V14.01,2013-03-21 20:42:00,
2013-03-21 16:45:00,43.4,27.4,29.77,SE,139,9.4,18.3,53,0.00,,FEW085,0.00,VWS V14.01,2013-03-21 20:45:00,
2013-03-21 16:47:00,43.2,27.3,29.77,SE,135,8.1,11.3,53,0.00,,BKN070,0.00,VWS V14.01,2013-03-21 20:47:00,
2013-03-21 16:50:00,42.9,26.9,29.77,ESE,118,6.7,16.9,53,0.00,,FEW085,0.00,VWS V14.01,2013-03-21 20:50:00,
2013-03-21 16:52:00,42.7,26.8,29.77,SSE,157,0.0,7.0,53,0.00,,BKN070,0.00,VWS V14.01,2013-03-21 20:52:00,
2013-03-21 16:55:00,42.3,26.4,29.80,SSE,155,12.1,16.9,53,0.00,,FEW085,0.00,VWS V14.01,2013-03-21 20:55:00,
2013-03-21 16:57:00,42.0,26.1,29.80,SSE,166,9.4,12.7,53,0.00,,BKN070,0.00,VWS V14.01,2013-03-21 20:57:00,
2013-03-21 17:00:00,41.8,25.9,29.80,South,172,10.7,12.7,53,0.00,,FEW085,0.00,VWS V14.01,2013-03-21 21:00:00,
2013-03-21 17:03:00,41.4,25.6,29.80,SSE,155,0.0,11.3,53,0.00,,BKN250,0.00,VWS V14.01,2013-03-21 21:03:00,
2013-03-21 17:05:00,41.3,25.4,29.80,SE,145,0.0,15.5,53,0.00,,FEW085,0.00,VWS V14.01,2013-03-21 21:05:00,
2013-03-21 17:08:00,41.3,25.4,29.80,SE,146,6.7,11.3,53,0.00,,BKN250,0.00,VWS V14.01,2013-03-21 21:08:00,
2013-03-21 17:10:00,41.3,25.4,29.80,South,179,9.4,15.5,53,0.00,,FEW085,0.00,VWS V14.01,2013-03-21 21:10:00,
2013-03-21 17:13:00,41.1,25.3,29.80,SE,135,14.8,15.5,53,0.00,,BKN250,0.00,VWS V14.01,2013-03-21 21:13:00,
2013-03-21 17:15:00,41.1,25.3,29.80,SE,128,0.0,15.5,53,0.00,,FEW085,0.00,VWS V14.01,2013-03-21 21:15:00,
2013-03-21 17:18:00,41.1,25.3,29.80,East,82,0.0,0.0,53,0.00,,BKN250,0.00,VWS V14.01,2013-03-21 21:18:00,
2013-03-21 17:20:00,41.3,25.4,29.80,East,82,0.0,0.0,53,0.00,,FEW085,0.00,VWS V14.01,2013-03-21 21:20:00,
2013-03-21 17:23:00,41.3,25.4,29.80,East,93,0.0,9.9,53,0.00,,BKN250,0.00,VWS V14.01,2013-03-21 21:23:00,
2013-03-21 17:25:00,41.4,25.6,29.80,SSE,152,10.7,12.7,53,0.00,,FEW085,0.00,VWS V14.01,2013-03-21 21:25:00,
2013-03-21 17:28:00,41.4,25.6,29.80,SE,138,8.1,12.7,53,0.00,,BKN250,0.00,VWS V14.01,2013-03-21 21:28:00,
2013-03-21 17:30:00,41.4,25.6,29.80,NNW,343,6.7,12.7,53,0.00,,FEW085,0.00,VWS V14.01,2013-03-21 21:30:00,
2013-03-21 17:33:00,41.4,25.6,29.80,SSE,160,0.0,7.0,53,0.00,,BKN250,0.00,VWS V14.01,2013-03-21 21:33:00,
2013-03-21 17:35:00,41.4,25.6,29.80,SSE,157,8.1,12.7,53,0.00,,FEW085,0.00,VWS V14.01,2013-03-21 21:35:00,
2013-03-21 17:38:00,41.4,25.6,29.83,SSE,149,12.1,16.9,53,0.00,,BKN250,0.00,VWS V14.01,2013-03-21 21:38:00,
2013-03-21 17:40:00,41.4,25.6,29.83,ESE,121,9.4,18.3,53,0.00,,FEW085,0.00,VWS V14.01,2013-03-21 21:40:00,
2013-03-21 17:44:00,41.3,25.4,29.83,SSE,151,12.1,18.3,53,0.00,,BKN250,0.00,VWS V14.01,2013-03-21 21:44:00,
2013-03-21 17:45:00,41.1,25.3,29.83,ESE,115,9.4,18.3,53,0.00,,FEW085,0.00,VWS V14.01,2013-03-21 21:45:00,
2013-03-21 17:49:00,40.5,24.8,29.83,SSE,157,10.7,18.3,53,0.00,,BKN250,0.00,VWS V14.01,2013-03-21 21:49:00,
2013-03-21 17:50:00,40.5,24.8,29.83,SE,141,9.4,19.7,53,0.00,,FEW085,0.00,VWS V14.01,2013-03-21 21:50:00,
2013-03-21 17:54:00,40.2,24.4,29.83,SSE,165,12.1,12.7,53,0.00,,BKN250,0.00,VWS V14.01,2013-03-21 21:54:00,
2013-03-21 17:55:00,40.2,24.4,29.83,South,170,6.7,12.7,53,0.00,,FEW085,0.00,VWS V14.01,2013-03-21 21:55:00,
2013-03-21 17:59:00,40.2,24.4,29.83,ESE,102,0.0,11.3,53,0.00,,BKN250,0.00,VWS V14.01,2013-03-21 21:59:00,
2013-03-21 18:00:00,40.2,24.4,29.83,NE,54,0.0,11.3,53,0.00,,FEW085,0.00,VWS V14.01,2013-03-21 22:00:00,
2013-03-21 18:04:00,40.7,24.9,29.83,SE,133,9.4,16.9,53,0.00,,BKN250,0.00,VWS V14.01,2013-03-21 22:04:00,
2013-03-21 18:05:00,40.7,24.9,29.83,SE,145,8.1,19.7,53,0.00,,FEW085,0.00,VWS V14.01,2013-03-21 22:05:00,
2013-03-21 18:09:00,41.1,25.3,29.83,SSE,156,6.7,18.3,53,0.00,,BKN250,0.00,VWS V14.01,2013-03-21 22:09:00,
2013-03-21 18:10:00,41.1,25.3,29.83,SE,144,10.7,18.3,53,0.00,,FEW085,0.00,VWS V14.01,2013-03-21 22:10:00,
2013-03-21 18:14:00,41.1,25.3,29.83,SSE,159,14.8,15.5,53,0.00,,BKN250,0.00,VWS V14.01,2013-03-21 22:14:00,
2013-03-21 18:15:00,41.1,25.3,29.83,ESE,120,9.4,15.5,53,0.00,,FEW085,0.00,VWS V14.01,2013-03-21 22:15:00,
2013-03-21 18:19:00,40.7,24.9,29.83,ESE,110,9.4,18.3,53,0.00,,BKN250,0.00,VWS V14.01,2013-03-21 22:19:00,
2013-03-21 18:20:00,40.7,24.9,29.83,East,95,12.1,18.3,53,0.00,,FEW085,0.00,VWS V14.01,2013-03-21 22:20:00,
2013-03-21 18:24:00,40.5,24.8,29.83,SSE,155,14.8,15.5,53,0.00,,BKN250,0.00,VWS V14.01,2013-03-21 22:24:00,
2013-03-21 18:25:00,40.4,24.6,29.83,SE,131,12.1,15.5,53,0.00,,FEW085,0.00,VWS V14.01,2013-03-21 22:25:00,
2013-03-21 18:29:00,40.2,24.4,29.83,SE,133,8.1,12.7,53,0.00,,BKN250,0.00,VWS V14.01,2013-03-21 22:29:00,
2013-03-21 18:30:00,40.2,24.4,29.83,SE,133,0.0,12.7,53,0.00,,FEW085,0.00,VWS V14.01,2013-03-21 22:30:00,
2013-03-21 18:34:00,40.0,24.3,29.83,SSE,167,0.0,12.7,53,0.00,,BKN250,0.00,VWS V14.01,2013-03-21 22:34:00,
2013-03-21 18:35:00,40.0,24.3,29.83,SE,146,0.0,12.7,53,0.00,,FEW085,0.00,VWS V14.01,2013-03-21 22:35:00,
2013-03-21 18:39:00,39.8,24.1,29.83,SSE,151,0.0,12.7,53,0.00,,BKN250,0.00,VWS V14.01,2013-03-21 22:39:00,
2013-03-21 18:40:00,39.8,24.1,29.83,SSE,151,0.0,12.7,53,0.00,,FEW085,0.00,VWS V14.01,2013-03-21 22:40:00,
2013-03-21 18:44:00,39.6,23.9,29.83,SE,143,16.1,19.7,53,0.00,,BKN250,0.00,VWS V14.01,2013-03-21 22:44:00,
2013-03-21 18:45:00,39.6,23.9,29.83,SSE,154,10.7,19.7,53,0.00,,FEW085,0.00,VWS V14.01,2013-03-21 22:45:00,
2013-03-21 18:50:00,39.6,23.9,29.83,West,259,8.1,16.9,53,0.00,,BKN250,0.00,VWS V14.01,2013-03-21 22:50:00,
2013-03-21 18:55:00,39.3,23.6,29.83,ESE,123,0.0,11.3,53,0.00,,BKN250,0.00,VWS V14.01,2013-03-21 22:55:00,
2013-03-21 19:00:00,39.1,23.4,29.83,ESE,109,0.0,0.0,53,0.00,,BKN250,0.00,VWS V14.01,2013-03-21 23:00:00,
2013-03-21 19:05:00,38.9,23.3,29.83,ESE,122,9.4,9.9,53,0.00,,FEW085,0.00,VWS V14.01,2013-03-21 23:05:00,
2013-03-21 19:10:00,38.6,22.9,29.85,SE,127,6.7,11.3,53,0.00,,FEW085,0.00,VWS V14.01,2013-03-21 23:10:00,
2013-03-21 19:15:00,38.2,22.6,29.85,SE,124,0.0,12.7,53,0.00,,FEW085,0.00,VWS V14.01,2013-03-21 23:15:00,
2013-03-21 19:20:00,38.0,22.9,29.85,ESE,118,12.1,16.9,54,0.00,,FEW085,0.00,VWS V14.01,2013-03-21 23:20:00,
2013-03-21 19:25:00,37.7,22.5,29.85,SSE,152,0.0,0.0,54,0.00,,FEW085,0.00,VWS V14.01,2013-03-21 23:25:00,
2013-03-21 19:30:00,37.5,22.4,29.85,SSE,150,0.0,0.0,54,0.00,,FEW085,0.00,VWS V14.01,2013-03-21 23:30:00,
2013-03-21 19:35:00,37.3,22.2,29.85,SE,144,0.0,0.0,54,0.00,,FEW085,0.00,VWS V14.01,2013-03-21 23:35:00,
2013-03-21 19:41:00,37.1,22.0,29.88,ESE,111,0.0,0.0,54,0.00,,FEW085,0.00,VWS V14.01,2013-03-21 23:41:00,
2013-03-21 19:46:00,36.9,21.9,29.88,SE,136,0.0,7.0,54,0.00,,FEW085,0.00,VWS V14.01,2013-03-21 23:46:00,
2013-03-21 19:52:00,36.8,21.7,29.88,SSE,164,0.0,0.0,54,0.00,,FEW085,0.00,VWS V14.01,2013-03-21 23:52:00,
2013-03-21 19:57:00,36.6,21.5,29.88,SSE,150,6.7,9.9,54,0.00,,FEW085,0.00,VWS V14.01,2013-03-21 23:57:00,
2013-03-21 20:02:00,36.4,21.4,29.88,SSE,150,0.0,0.0,54,0.00,,FEW085,0.00,VWS V14.01,2013-03-22 00:02:00,
2013-03-21 20:07:00,36.2,21.2,29.88,SSE,152,0.0,0.0,54,0.00,,FEW085,0.00,VWS V14.01,2013-03-22 00:07:00,
2013-03-21 20:12:00,36.0,21.0,29.88,North,353,0.0,0.0,54,0.00,,FEW085,0.00,VWS V14.01,2013-03-22 00:12:00,
2013-03-21 20:17:00,35.9,20.9,29.88,SE,145,8.1,8.5,54,0.00,,FEW085,0.00,VWS V14.01,2013-03-22 00:17:00,
2013-03-21 20:22:00,35.7,20.7,29.88,SSE,147,8.1,8.5,54,0.00,,FEW085,0.00,VWS V14.01,2013-03-22 00:22:00,
2013-03-21 20:27:00,35.5,20.5,29.88,SE,136,0.0,8.5,54,0.00,,FEW085,0.00,VWS V14.01,2013-03-22 00:27:00,
2013-03-21 20:32:00,35.5,20.5,29.88,SSE,148,0.0,0.0,54,0.00,,FEW085,0.00,VWS V14.01,2013-03-22 00:32:00,
2013-03-21 20:38:00,35.3,20.4,29.88,SSE,147,6.7,11.3,54,0.00,,FEW085,0.00,VWS V14.01,2013-03-22 00:38:00,
2013-03-21 20:42:00,35.1,20.2,29.88,SE,144,0.0,0.0,54,0.00,,FEW085,0.00,VWS V14.01,2013-03-22 00:42:00,
2013-03-21 20:47:00,35.1,20.2,29.88,SSE,150,0.0,0.0,54,0.00,,FEW085,0.00,VWS V14.01,2013-03-22 00:47:00,
2013-03-21 20:53:00,35.0,20.0,29.91,SE,140,0.0,0.0,54,0.00,,FEW085,0.00,VWS V14.01,2013-03-22 00:53:00,
2013-03-21 20:58:00,34.8,19.9,29.91,SSE,166,0.0,0.0,54,0.00,,FEW085,0.00,VWS V14.01,2013-03-22 00:58:00,
2013-03-21 21:03:00,34.6,19.7,29.91,SE,146,0.0,9.9,54,0.00,,FEW085,0.00,VWS V14.01,2013-03-22 01:03:00,
2013-03-21 21:08:00,34.6,19.7,29.91,SE,140,0.0,0.0,54,0.00,,FEW085,0.00,VWS V14.01,2013-03-22 01:08:00,
2013-03-21 21:13:00,34.4,19.9,29.91,SSE,162,0.0,7.0,55,0.00,,FEW085,0.00,VWS V14.01,2013-03-22 01:13:00,
2013-03-21 21:18:00,34.4,19.9,29.91,ESE,123,0.0,16.9,55,0.00,,FEW085,0.00,VWS V14.01,2013-03-22 01:18:00,
2013-03-21 21:23:00,34.2,19.8,29.91,SE,126,0.0,0.0,55,0.00,,FEW085,0.00,VWS V14.01,2013-03-22 01:23:00,
2013-03-21 21:28:00,34.2,19.8,29.91,SSE,151,0.0,8.5,55,0.00,,FEW085,0.00,VWS V14.01,2013-03-22 01:28:00,
2013-03-21 21:33:00,34.1,19.6,29.91,SSE,156,0.0,9.9,55,0.00,,FEW085,0.00,VWS V14.01,2013-03-22 01:33:00,
2013-03-21 21:38:00,33.9,19.4,29.91,SSE,153,0.0,0.0,55,0.00,,FEW085,0.00,VWS V14.01,2013-03-22 01:38:00,
2013-03-21 21:43:00,33.9,19.4,29.91,SSE,148,0.0,0.0,55,0.00,,FEW085,0.00,VWS V14.01,2013-03-22 01:43:00,
2013-03-21 21:48:00,33.7,19.3,29.91,SE,144,0.0,0.0,55,0.00,,FEW085,0.00,VWS V14.01,2013-03-22 01:48:00,
2013-03-21 21:53:00,33.5,19.1,29.91,South,173,0.0,7.0,55,0.00,,FEW085,0.00,VWS V14.01,2013-03-22 01:53:00,
2013-03-21 21:58:00,33.3,18.9,29.91,SSE,155,0.0,0.0,55,0.00,,FEW085,0.00,VWS V14.01,2013-03-22 01:58:00,
2013-03-21 22:03:00,33.3,18.9,29.91,ENE,73,0.0,9.9,55,0.00,,CLR,0.00,VWS V14.01,2013-03-22 02:03:00,
2013-03-21 22:09:00,33.2,18.8,29.94,SE,145,0.0,0.0,55,0.00,,CLR,0.00,VWS V14.01,2013-03-22 02:09:00,
2013-03-21 22:14:00,33.2,18.8,29.94,SSE,150,0.0,15.5,55,0.00,,CLR,0.00,VWS V14.01,2013-03-22 02:14:00,
2013-03-21 22:19:00,33.0,18.6,29.94,SE,135,0.0,0.0,55,0.00,,CLR,0.00,VWS V14.01,2013-03-22 02:19:00,
2013-03-21 22:24:00,33.0,18.6,29.94,ESE,118,0.0,9.9,55,0.00,,CLR,0.00,VWS V14.01,2013-03-22 02:24:00,
2013-03-21 22:29:00,32.8,18.4,29.94,SSW,202,0.0,8.5,55,0.00,,CLR,0.00,VWS V14.01,2013-03-22 02:29:00,
2013-03-21 22:34:00,32.8,18.4,29.94,NNE,23,0.0,0.0,55,0.00,,CLR,0.00,VWS V14.01,2013-03-22 02:34:00,
2013-03-21 22:39:00,32.6,18.3,29.94,SE,130,0.0,8.5,55,0.00,,CLR,0.00,VWS V14.01,2013-03-22 02:39:00,
2013-03-21 22:44:00,32.6,18.3,29.94,NE,44,0.0,0.0,55,0.00,,CLR,0.00,VWS V14.01,2013-03-22 02:44:00,
2013-03-21 22:49:00,32.4,18.1,29.94,ESE,121,0.0,0.0,55,0.00,,CLR,0.00,VWS V14.01,2013-03-22 02:49:00,
2013-03-21 22:54:00,32.3,17.9,29.94,ESE,123,0.0,0.0,55,0.00,,CLR,0.00,VWS V14.01,2013-03-22 02:54:00,
2013-03-21 22:59:00,32.1,17.8,29.94,SE,128,0.0,0.0,55,0.00,,CLR,0.00,VWS V14.01,2013-03-22 02:59:00,
2013-03-21 23:05:00,32.1,17.8,29.94,SE,140,0.0,0.0,55,0.00,,CLR,0.00,VWS V14.01,2013-03-22 03:05:00,
2013-03-21 23:10:00,32.1,17.8,29.94,ESE,109,0.0,0.0,55,0.00,,CLR,0.00,VWS V14.01,2013-03-22 03:10:00,
2013-03-21 23:15:00,31.9,17.6,29.94,SSE,158,8.1,8.5,55,0.00,,CLR,0.00,VWS V14.01,2013-03-22 03:15:00,
2013-03-21 23:20:00,31.9,17.6,29.94,SSE,155,0.0,0.0,55,0.00,,CLR,0.00,VWS V14.01,2013-03-22 03:20:00,
2013-03-21 23:25:00,31.7,17.4,29.94,SE,141,0.0,9.9,55,0.00,,CLR,0.00,VWS V14.01,2013-03-22 03:25:00,
2013-03-21 23:30:00,31.5,17.2,29.94,SSE,162,0.0,8.5,55,0.00,,CLR,0.00,VWS V14.01,2013-03-22 03:30:00,
2013-03-21 23:35:00,31.5,17.2,29.94,SSE,157,0.0,0.0,55,0.00,,CLR,0.00,VWS V14.01,2013-03-22 03:35:00,
2013-03-21 23:40:00,31.4,17.1,29.94,ESE,117,0.0,0.0,55,0.00,,CLR,0.00,VWS V14.01,2013-03-22 03:40:00,
2013-03-21 23:45:00,31.2,16.9,29.94,SSE,148,0.0,0.0,55,0.00,,CLR,0.00,VWS V14.01,2013-03-22 03:45:00,
2013-03-21 23:50:00,31.2,16.9,29.94,SE,146,0.0,0.0,55,0.00,,CLR,0.00,VWS V14.01,2013-03-22 03:50:00,
2013-03-21 23:55:00,31.0,16.7,29.94,SSE,151,0.0,0.0,55,0.00,,CLR,0.00,VWS V14.01,2013-03-22 03:55:00,